Kars, Turkey

6:05 PM +03 on November 19, 2017 (GMT +0300)
Kars

Weather History for LTCF - July, 2013

Change the Weather History Date:

Sunday, July 21, 2013

  Actual Average Record
Temperature  
Mean Temperature 62 °F -  
Max Temperature 76 °F 78 °F - ()
Min Temperature 47 °F 49 °F - ()
Degree Days  
Heating Degree Days 4    
Growing Degree Days 12 (Base 50)    
Moisture  
Dew Point 49 °F    
Average Humidity 60    
Maximum Humidity 94    
Minimum Humidity 22    
Precipitation  
Precipitation 0.04 in 0.05 in - ()
Sea Level Pressure  
Sea Level Pressure 29.99 in    
Wind  
Wind Speed 5 mph ()    
Max Wind Speed 16 mph    
Max Gust Speed -    
Visibility 6.2 miles    
Events      
T = Trace of Precipitation, MM = Missing Value Source: Averaged Metar Reports

Daily Weather History Graph

Daily Weather History Graph

Search for Another Location

Airport or City:

Trip Planner

Search our weather history database for the weather conditions in past years. The results will help you decide how hot, cold, wet, or windy it might be!

Date:

Astronomy

Jul. 21, 2013 Rise Set
Actual Time 4:54 AM EEST 7:32 PM EEST
Civil Twilight 4:22 AM EEST 8:04 PM EEST
Nautical Twilight 3:43 AM EEST 8:44 PM EEST
Astronomical Twilight 2:58 AM EEST 9:28 PM EEST
Moon 6:11 PM EEST (7/21) 3:15 AM EEST (7/21)
Length of Visible Light 15h 41m
Length of Day
14h 38m
Waxing Gibbous, 97% of the Moon is Illuminated
Jul 21
Waxing Gibbous
Jul 22
Full
Jul 29
Last Quarter
Aug 7
New
Aug 14
First Quarter

Hourly Weather History & Observations

Time (EEST) Temp. Dew Point Humidity Pressure Visibility Wind Dir Wind Speed Gust Speed Precip Events Conditions
12:50 AM 53.6 °F 46.4 °F 77% 30.04 in - NE 4.6 mph - N/A   Clear
1:50 AM 53.6 °F 46.4 °F 77% 30.04 in - ESE 3.5 mph - N/A   Clear
2:50 AM 50.0 °F 44.6 °F 82% 30.04 in - NNE 3.5 mph - N/A   Clear
3:00 AM 51 °F 45 °F 74%  in 6 mi NNE 3.5 mph - -  
3:50 AM 50.0 °F 44.6 °F 82% 30.04 in - NNE 4.6 mph - N/A   Clear
4:50 AM 48.2 °F 46.4 °F 93% 30.04 in - Calm Calm - N/A   Clear
5:50 AM 50.0 °F 48.2 °F 94% 30.04 in - Calm Calm - N/A   Clear
6:50 AM 55.4 °F 48.2 °F 77% 30.04 in - Calm Calm - N/A   Clear
7:50 AM 60.8 °F 48.2 °F 63% 30.04 in 6.2 mi North 3.5 mph - N/A   Scattered Clouds
8:50 AM 66.2 °F 51.8 °F 60% 30.01 in 6.2 mi NNE 11.5 mph - N/A   Scattered Clouds
9:00 AM 66 °F 51 °F 48%  in 6 mi NNE 11.5 mph - -   Partly Cloudy
9:50 AM 68.0 °F 51.8 °F 56% 30.01 in 6.2 mi NNE 6.9 mph - N/A   Scattered Clouds
10:50 AM 69.8 °F 51.8 °F 53% 29.98 in 6.2 mi Variable 5.8 mph - N/A   Scattered Clouds
11:50 AM 73.4 °F 53.6 °F 50% 29.98 in 6.2 mi Variable 2.3 mph - N/A   Scattered Clouds
12:50 PM 71.6 °F 51.8 °F 50% 29.98 in 6.2 mi ESE 4.6 mph - N/A   Mostly Cloudy
1:50 PM 75.2 °F 48.2 °F 38% 29.95 in 6.2 mi Variable 3.5 mph - N/A   Scattered Clouds
2:50 PM 75.2 °F 44.6 °F 34% 29.95 in 6.2 mi Variable 2.3 mph - N/A   Scattered Clouds
3:00 PM 75 °F 44 °F 22%  in 6 mi NNE 2.3 mph - -   Partly Cloudy
3:50 PM 77.0 °F 48.2 °F 36% 29.92 in 6.2 mi ENE 5.8 mph - N/A   Scattered Clouds
4:50 PM 75.2 °F 46.4 °F 36% 29.92 in 6.2 mi ENE 8.1 mph - N/A   Scattered Clouds
5:50 PM 71.6 °F 50.0 °F 46% 29.92 in 6.2 mi East 16.1 mph - N/A   Partly Cloudy
6:50 PM 68.0 °F 51.8 °F 56% 29.95 in 6.2 mi East 15.0 mph - N/A   Partly Cloudy
7:50 PM 64.4 °F 50.0 °F 59% 29.95 in - NE 12.7 mph - N/A   Clear
8:50 PM 60.8 °F 50.0 °F 68% 29.98 in - ENE 11.5 mph - N/A   Clear
9:00 PM 61 °F 50 °F 59%  in 6 mi ENE 11.5 mph - -  
9:50 PM 60.8 °F 50.0 °F 68% 29.98 in - East 15.0 mph - N/A   Clear
10:50 PM 60.8 °F 50.0 °F 68% 30.01 in - East 11.5 mph - N/A   Clear
11:50 PM 60.8 °F 50.0 °F 68% 30.01 in - NE 5.8 mph - N/A   Clear